Location: Newark
(25.4800°N, 85.7200°E)
Time: 09:04:20
(UTC+00:00)

Vanguard 1 Rocket - Pass Details

Date: 25 August 2019
Orbit: 650 x 4226 km, 34.3° (Epoch: 20 October)

Event Time Altitude Azimuth Distance (km) Brightness Sun altitude
Rises 04:25:08 0° 268° (W) 5,159 11.0 59.3°
Reaches altitude 10° 04:29:23 10° 252° (WSW) 4,699 10.9 60.2°
Maximum altitude 04:38:38 20° 211° (SSW) 4,900 11.4 62.0°
Drops below altitude 10° 04:51:51 10° 172° (S) 6,821 12.2 64.7°
Sets 05:00:40 0° 158° (SSE) 8,281 12.6 66.3°
